Kununurra, Western Australia

12:57 PM AWST on August 30, 2016 (GMT +0800)
Kununurra

Weather History for YPKU - April, 2013

Change the Weather History Date:

Sunday, April 7, 2013

  Actual Average Record
Temperature  
Mean Temperature 83 °F -  
Max Temperature 93 °F - - ()
Min Temperature 73 °F - - ()
Cooling Degree Days 18    
Growing Degree Days 33 (Base 50)    
Moisture  
Dew Point 68 °F    
Average Humidity 63    
Maximum Humidity 89    
Minimum Humidity 27    
Precipitation  
Precipitation 0.00 in - - ()
Sea Level Pressure  
Sea Level Pressure 29.81 in    
Wind  
Wind Speed 6 mph ()    
Max Wind Speed 14 mph    
Max Gust Speed -    
Visibility 6.2 miles    
Events      
T = Trace of Precipitation, MM = Missing Value Source: Averaged Metar Reports

Daily Weather History Graph

Daily Weather History Graph

Search for Another Location

Airport or City:

Trip Planner

Search our weather history database for the weather conditions in past years. The results will help you decide how hot, cold, wet, or windy it might be!

Date:

Astronomy

Apr. 07, 2013 Rise Set
Actual Time 5:31 AM AWST 5:22 PM AWST
Civil Twilight 5:10 AM AWST 5:44 PM AWST
Nautical Twilight 4:44 AM AWST 6:09 PM AWST
Astronomical Twilight 4:20 AM AWST 6:34 PM AWST
Moon 2:31 AM AWST (4/7) 3:04 PM AWST (4/7)
Length of Visible Light 12h 34m
Length of Day
11h 51m
Waning Crescent, 11% of the Moon is Illuminated
Apr 7
Waning Crescent
Apr 10
New
Apr 18
First Quarter
Apr 26
Full
May 2
Last Quarter

Hourly Weather History & Observations

Time (AWST) Temp. Heat Index Dew Point Humidity Pressure Visibility Wind Dir Wind Speed Gust Speed Precip Events Conditions
12:00 AM 78.8 °F - 69.8 °F 74% 29.83 in 6.2 mi South 4.6 mph - N/A   Unknown
12:30 AM 78.8 °F - 68.0 °F 69% 29.80 in 6.2 mi South 3.5 mph - N/A   Unknown
1:00 AM 75.2 °F - 69.8 °F 83% 29.80 in 6.2 mi SSW 4.6 mph - N/A   Unknown
1:30 AM 75.2 °F - 69.8 °F 83% 29.80 in 6.2 mi SSW 4.6 mph - N/A   Unknown
2:00 AM 75 °F - 70 °F 79% 29.80 in - SSW 5.8 mph - -  
2:00 AM 75.2 °F - 69.8 °F 83% 29.80 in 6.2 mi SSW 5.8 mph - N/A   Unknown
2:30 AM 75.2 °F - 69.8 °F 83% 29.80 in 6.2 mi SSW 5.8 mph - N/A   Unknown
3:00 AM 75.2 °F - 68.0 °F 78% 29.80 in 6.2 mi South 5.8 mph - N/A   Unknown
3:30 AM 77.0 °F - 68.0 °F 74% 29.80 in 6.2 mi South 5.8 mph - N/A   Unknown
4:00 AM 75.2 °F - 68.0 °F 78% 29.80 in 6.2 mi South 3.5 mph - N/A   Unknown
4:30 AM 73.4 °F - 69.8 °F 88% 29.80 in 6.2 mi South 3.5 mph - N/A   Unknown
5:00 AM 73 °F - 69 °F 84% 29.82 in - South 3.5 mph - -  
5:00 AM 73.4 °F - 69.8 °F 88% 29.83 in 6.2 mi South 3.5 mph - N/A   Unknown
5:30 AM 75.2 °F - 66.2 °F 73% 29.83 in 6.2 mi South 4.6 mph - N/A   Unknown
6:00 AM 75.2 °F - 68.0 °F 78% 29.83 in 6.2 mi SSE 4.6 mph - N/A   Unknown
6:30 AM 78.8 °F - 68.0 °F 69% 29.86 in 6.2 mi SSE 4.6 mph - N/A   Unknown
7:00 AM 80.6 °F 83.2 °F 68.0 °F 65% 29.86 in 6.2 mi South 6.9 mph - N/A   Unknown
7:30 AM 80.6 °F 83.2 °F 68.0 °F 65% 29.86 in 6.2 mi SSE 5.8 mph - N/A   Unknown
8:00 AM 84 °F - 67 °F 48% 29.86 in - SSE 6.9 mph - -  
8:00 AM 84.2 °F 87.3 °F 68.0 °F 58% 29.86 in 6.2 mi SSE 6.9 mph - N/A   Unknown
8:30 AM 86.0 °F 87.3 °F 64.4 °F 48% 29.86 in 6.2 mi SE 8.1 mph - N/A   Unknown
9:00 AM 87.8 °F 90.4 °F 66.2 °F 49% 29.86 in 6.2 mi SE 11.5 mph - N/A   Unknown
9:30 AM 87.8 °F 90.4 °F 66.2 °F 49% 29.86 in 6.2 mi East 11.5 mph - N/A   Unknown
10:00 AM 89.6 °F 92.2 °F 66.2 °F 46% 29.83 in 6.2 mi ESE 13.8 mph - N/A   Unknown
10:30 AM 89.6 °F 92.2 °F 66.2 °F 46% 29.83 in 6.2 mi SE 11.5 mph - N/A   Unknown
11:00 AM 91 °F - 66 °F 34% 29.82 in - ESE 11.5 mph - -  
11:00 AM 91.4 °F 94.0 °F 66.2 °F 43% 29.83 in 6.2 mi ESE 11.5 mph - N/A   Unknown
11:30 AM 91.4 °F 95.4 °F 68.0 °F 46% 29.80 in 6.2 mi ESE 10.4 mph - N/A   Unknown
12:00 PM 91.4 °F 94.0 °F 66.2 °F 43% 29.80 in 6.2 mi ESE 12.7 mph - N/A   Unknown
12:30 PM 93.2 °F 96.2 °F 66.2 °F 41% 29.77 in 6.2 mi ESE 12.7 mph - N/A   Scattered Clouds
1:00 PM 93.2 °F 94.9 °F 64.4 °F 38% 29.77 in 6.2 mi ESE 12.7 mph - N/A   Unknown
1:30 PM 93.2 °F 94.9 °F 64.4 °F 38% 29.74 in 6.2 mi ESE 11.5 mph - N/A   Unknown
2:00 PM 93 °F - 63 °F 27% 29.75 in - ESE 12.7 mph - -  
2:00 PM 93.2 °F 94.1 °F 62.6 °F 36% 29.74 in 6.2 mi ESE 12.7 mph - N/A   Unknown
2:30 PM 93.2 °F 94.1 °F 62.6 °F 36% 29.74 in 6.2 mi East 11.5 mph - N/A   Unknown
3:00 PM 93.2 °F 94.1 °F 62.6 °F 36% 29.74 in 6.2 mi ESE 10.4 mph - N/A   Unknown
3:30 PM 93.2 °F 94.1 °F 62.6 °F 36% 29.74 in 6.2 mi East 10.4 mph - N/A   Scattered Clouds
4:00 PM 93.2 °F 94.1 °F 62.6 °F 36% 29.74 in 6.2 mi East 10.4 mph - N/A   Unknown
4:30 PM 93.2 °F 94.1 °F 62.6 °F 36% 29.74 in 6.2 mi East 10.4 mph - N/A   Unknown
5:00 PM 90 °F - 65 °F 34% 29.76 in - East 6.9 mph - -  
5:00 PM 89.6 °F 91.1 °F 64.4 °F 43% 29.77 in 6.2 mi East 6.9 mph - N/A   Unknown
5:30 PM 87.8 °F 91.4 °F 68.0 °F 52% 29.77 in 6.2 mi East 4.6 mph - N/A   Unknown
6:00 PM 84.2 °F 89.6 °F 71.6 °F 66% 29.77 in 6.2 mi SE 2.3 mph - N/A   Unknown
6:30 PM 82.4 °F 87.2 °F 71.6 °F 70% 29.80 in 6.2 mi Calm Calm - N/A   Unknown
7:00 PM 82.4 °F 89.5 °F 75.2 °F 79% 29.80 in 6.2 mi Calm Calm - N/A   Unknown
7:30 PM 82.4 °F 87.2 °F 71.6 °F 70% 29.83 in 6.2 mi SE 1.2 mph - N/A   Unknown
8:00 PM 80 °F - 74 °F 76% 29.84 in - ESE 4.6 mph - -  
8:00 PM 80.6 °F 85.4 °F 73.4 °F 79% 29.83 in 6.2 mi ESE 4.6 mph - N/A   Unknown
8:30 PM 78.8 °F - 73.4 °F 83% 29.86 in 6.2 mi SE 1.2 mph - N/A   Unknown
9:00 PM 78.8 °F - 73.4 °F 83% 29.86 in 6.2 mi Calm Calm - N/A   Unknown
9:30 PM 77.0 °F - 73.4 °F 89% 29.83 in 6.2 mi Calm Calm - N/A   Unknown
10:00 PM 77.0 °F - 73.4 °F 89% 29.83 in 6.2 mi West 3.5 mph - N/A   Scattered Clouds
10:30 PM 78.8 °F - 73.4 °F 83% 29.83 in 6.2 mi SW 2.3 mph - N/A   Unknown
11:00 PM 77 °F - 74 °F 86% 29.83 in - Calm Calm - -  
11:00 PM 77.0 °F - 73.4 °F 89% 29.83 in 6.2 mi Calm Calm - N/A   Unknown
11:30 PM 77.0 °F - 73.4 °F 89% 29.83 in 6.2 mi SE 2.3 mph - N/A   Unknown